User: anonymous   Login
Location: Unspecified
(0.0000°N, 0.0000°E)
Time: 07:44:45
(UTC+00:00)
Language:

STARLINK-36501 - Orbit

View from above orbital plane
View from above orbital plane
View from above satellite
View from above satellite

Ground track
Ground track

The orbit is defined by the following mean orbital elements,

1 67327U          26145.59037014 +.00000000 +00000-0 +92428-3 0 00003
2 67327  43.0007 250.6406 0001498 276.5169  83.5512 15.27600541    07
Epoch (UTC): 25 May 2026 14:10:07
Eccentricity: 0.0001498
inclination: 43.0007°
perigee height: 482 km
apogee height: 484 km
right ascension of ascending node: 250.6406°
argument of perigee: 276.5169°
revolutions per day: 15.27600541
mean anomaly at epoch: 83.5512°

The dashed part of the orbit path shows where the satellite is in the earth's shadow,  

DLR